TimeCST,TemperatureF,Dew PointF,Humidity,Sea Level PressureIn,VisibilityMPH,Wind Direction,Wind SpeedMPH,Gust SpeedMPH,PrecipitationIn,Events,Conditions,WindDirDegrees,DateUTC
12:53 AM,32.0,32.0,100,30.38,9.0,North,3.5,-,N/A,,Clear,360,2012-11-17 06:53:00
1:53 AM,33.1,32.0,96,30.37,10.0,ENE,3.5,-,N/A,,Clear,60,2012-11-17 07:53:00
2:53 AM,30.9,28.9,92,30.37,10.0,Calm,Calm,-,N/A,,Clear,0,2012-11-17 08:53:00
3:53 AM,30.9,30.0,96,30.36,9.0,Calm,Calm,-,N/A,,Clear,0,2012-11-17 09:53:00
4:53 AM,28.0,28.0,100,30.38,3.0,Calm,Calm,-,N/A,,Clear,0,2012-11-17 10:53:00
5:11 AM,28.4,28.4,100,30.37,2.0,Calm,Calm,-,N/A,,Clear,0,2012-11-17 11:11:00
5:22 AM,28.4,28.4,100,30.38,4.0,Calm,Calm,-,N/A,,Clear,0,2012-11-17 11:22:00
5:53 AM,30.0,28.9,96,30.39,5.0,NNE,3.5,-,N/A,,Clear,20,2012-11-17 11:53:00
6:53 AM,30.0,28.9,96,30.41,6.0,Calm,Calm,-,N/A,,Clear,0,2012-11-17 12:53:00
7:53 AM,39.0,35.1,86,30.43,9.0,Calm,Calm,-,N/A,,Clear,0,2012-11-17 13:53:00
8:53 AM,46.9,37.0,68,30.43,10.0,NE,3.5,-,N/A,,Clear,50,2012-11-17 14:53:00
9:53 AM,53.1,35.1,50,30.43,10.0,Calm,Calm,-,N/A,,Clear,0,2012-11-17 15:53:00
10:53 AM,59.0,35.1,41,30.42,10.0,NE,4.6,-,N/A,,Clear,50,2012-11-17 16:53:00
11:53 AM,63.0,35.1,35,30.38,10.0,Calm,Calm,-,N/A,,Clear,0,2012-11-17 17:53:00
12:53 PM,66.0,34.0,30,30.36,10.0,Calm,Calm,-,N/A,,Clear,0,2012-11-17 18:53:00
1:53 PM,66.9,34.0,30,30.34,10.0,North,5.8,-,N/A,,Clear,10,2012-11-17 19:53:00
2:53 PM,66.9,32.0,27,30.33,10.0,North,9.2,-,N/A,,Clear,360,2012-11-17 20:53:00
3:53 PM,64.0,34.0,33,30.34,10.0,North,6.9,-,N/A,,Clear,10,2012-11-17 21:53:00
4:53 PM,54.0,33.1,45,30.33,10.0,NNE,5.8,-,N/A,,Clear,20,2012-11-17 22:53:00
5:53 PM,46.9,35.1,63,30.35,10.0,Calm,Calm,-,N/A,,Clear,0,2012-11-17 23:53:00
6:53 PM,48.0,36.0,63,30.35,10.0,Calm,Calm,-,N/A,,Clear,0,2012-11-18 00:53:00
7:53 PM,43.0,35.1,74,30.35,10.0,ENE,3.5,-,N/A,,Clear,60,2012-11-18 01:53:00
8:53 PM,41.0,35.1,79,30.37,10.0,NNE,3.5,-,N/A,,Clear,30,2012-11-18 02:53:00
9:53 PM,37.9,35.1,89,30.38,10.0,NE,3.5,-,N/A,,Clear,40,2012-11-18 03:53:00
10:53 PM,37.9,36.0,93,30.38,10.0,ENE,3.5,-,N/A,,Clear,70,2012-11-18 04:53:00
11:53 PM,35.1,33.1,92,30.37,10.0,NE,3.5,-,N/A,,Clear,50,2012-11-18 05:53:00